Pian Rosa, Italy

2:32 PM CEST on September 26, 2016 (GMT +0200)
Pian Rosa

Weather History for LIMH - October, 2012

Change the Weather History Date:

Tuesday, October 30, 2012

  Actual Average Record
Temperature  
Mean Temperature 15 °F -  
Max Temperature 19 °F 24 °F 37 °F (2006)
Min Temperature 11 °F 18 °F 8 °F (2008)
Degree Days  
Heating Degree Days 50    
Moisture  
Dew Point 7 °F    
Average Humidity 60    
Maximum Humidity 68    
Minimum Humidity 40    
Precipitation  
Precipitation 0.00 in - - ()
Sea Level Pressure  
Sea Level Pressure 29.73 in    
Wind  
Wind Speed 9 mph ()    
Max Wind Speed 16 mph    
Max Gust Speed -    
Visibility 6.4 miles    
Events      
Averages and records for this station are not official NWS values.
T = Trace of Precipitation, MM = Missing Value Source: Averaged Metar Reports

Daily Weather History Graph

Daily Weather History Graph

Search for Another Location

Airport or City:

Trip Planner

Search our weather history database for the weather conditions in past years. The results will help you decide how hot, cold, wet, or windy it might be!

Date:

Astronomy

Oct. 30, 2012 Rise Set
Actual Time 7:07 AM CET 5:17 PM CET
Civil Twilight 6:36 AM CET 5:48 PM CET
Nautical Twilight 6:00 AM CET 6:24 PM CET
Astronomical Twilight 5:26 AM CET 6:58 PM CET
Moon 5:32 PM CET (10/30) 7:42 AM CET (10/30)
Length of Visible Light 11h 12m
Length of Day
10h 10m
Full, 100% of the Moon is Illuminated
Oct 30
Full
Nov 7
Last Quarter
Nov 13
New
Nov 20
First Quarter
Nov 28
Full

Hourly Weather History & Observations

Time (CET) Temp. Windchill Dew Point Humidity Pressure Visibility Wind Dir Wind Speed Gust Speed Precip Events Conditions
12:55 AM 17.6 °F 3.7 °F 3.2 °F 53% 29.80 in 6.2 mi NE 13.8 mph - N/A   Partly Cloudy
1:00 AM 17 °F - 3 °F 40%  in 6 mi NE 13.8 mph - -   Scattered Clouds
1:55 AM 15.8 °F 2.1 °F 6.8 °F 68% 29.77 in 6.2 mi NNE 12.7 mph - N/A   Partly Cloudy
2:55 AM 15.8 °F 0.3 °F 6.8 °F 68% 29.77 in 6.2 mi North 16.1 mph - N/A   Partly Cloudy
3:55 AM 17.6 °F 6.4 °F 6.8 °F 63% 29.77 in 6.2 mi North 9.2 mph - N/A   Partly Cloudy
4:00 AM 17 °F - 8 °F 54%  in 6 mi North 9.2 mph - -   Scattered Clouds
4:55 AM 17.6 °F 5.7 °F 6.8 °F 63% 29.74 in 6.2 mi NNW 10.4 mph - N/A   Partly Cloudy
5:55 AM 15.8 °F 5.1 °F 6.8 °F 68% 29.74 in 6.2 mi West 8.1 mph - N/A   Scattered Clouds
6:55 AM 15.8 °F 6.1 °F 6.8 °F 68% 29.74 in 6.2 mi West 6.9 mph - N/A   Scattered Clouds
7:00 AM 17 °F - 7 °F 51%  in 12 mi West 6.9 mph - -   Scattered Clouds
7:55 AM 15.8 °F - 6.8 °F 68% 29.71 in 6.2 mi Calm Calm - N/A   Partly Cloudy
8:55 AM 15.8 °F 2.1 °F 6.8 °F 68% 29.74 in 6.2 mi WNW 12.7 mph - N/A   Scattered Clouds
9:55 AM 17.6 °F 8.2 °F 6.8 °F 63% 29.74 in 6.2 mi NW 6.9 mph - N/A   Scattered Clouds
10:00 AM 17 °F - 7 °F 51%  in 25 mi NW 6.9 mph - -   Partly Cloudy
10:55 AM 17.6 °F 10.7 °F 6.8 °F 63% 29.74 in 6.2 mi NNE 4.6 mph - N/A   Partly Cloudy
11:55 AM 17.6 °F 10.7 °F 6.8 °F 63% 29.74 in 6.2 mi North 4.6 mph - N/A   Partly Cloudy
12:55 PM 19.4 °F 14.3 °F 5.0 °F 54% 29.74 in 6.2 mi Variable 3.5 mph - N/A   Partly Cloudy
1:00 PM 19 °F - 5 °F 40%  in 25 mi 3.5 mph - -   Scattered Clouds
1:55 PM 19.4 °F 14.3 °F 5.0 °F 54% 29.71 in 6.2 mi Variable 3.5 mph - N/A   Partly Cloudy
2:55 PM 19.4 °F 8.6 °F 5.0 °F 54% 29.71 in - SSW 9.2 mph - N/A   Clear
3:55 PM 19.4 °F 14.3 °F 10.4 °F 68% 29.71 in 6.2 mi Variable 3.5 mph - N/A   Partly Cloudy
4:00 PM 19 °F - 10 °F 54%  in 31 mi 3.5 mph - -   Scattered Clouds
4:55 PM 19.4 °F 10.4 °F 10.4 °F 68% 29.71 in - South 6.9 mph - N/A   Clear
5:55 PM 19.4 °F 8.6 °F 10.4 °F 68% 29.71 in - South 9.2 mph - N/A   Clear
6:55 PM 17.6 °F 3.2 °F 6.8 °F 63% 29.68 in - SSW 15.0 mph - N/A   Clear
7:00 PM 18 °F - 8 °F 50%  in 6 mi SSW 15.0 mph - -   Partly Cloudy
7:55 PM 15.8 °F 2.7 °F 5.0 °F 62% 29.71 in - SSW 11.5 mph - N/A   Clear
8:55 PM 15.8 °F 1.4 °F 6.8 °F 68% 29.71 in - SSW 13.8 mph - N/A   Clear
9:55 PM 15.8 °F 4.2 °F 6.8 °F 68% 29.71 in - South 9.2 mph - N/A   Clear
10:00 PM 16 °F - 7 °F 54%  in 6 mi South 9.2 mph - -  
10:55 PM 15.8 °F 2.7 °F 6.8 °F 68% 29.71 in 6.2 mi SSW 11.5 mph - N/A   Partly Cloudy
11:55 PM 15.8 °F 0.3 °F 5.0 °F 62% 29.71 in - SSW 16.1 mph - N/A   Clear